[[{"header":{"parameterUnit":"m.s-1","parameterCategory":2,"la1":30.2991,"la2":30.254,"lo1":-89.0895,"lo2":-89.0444,"dy":0.0017,"dx":0.0017,"nx":28,"ny":28,"refTime":"2025-07-09T03:00:00:Z","depth":"0","parameterNumber":2,"parameterNumberName":"U-component_of_CURRENTS"},"data":[0,0,0,0,0,0,0,0,0,0,0,0,0,0,0,0,0,0,0,0,0,0,0,0,0,0,0,0,0,0,0,0,0,0,0,0,0,0,0,0,0,0,0,0,0,0,0,0,0,0,0,0,0,0,0,0,0,0,0.4471,0.4474,0,0.4719,0.4721,0.4724,0.4689,0.4686,0.4682,0.4679,0.4662,0.4665,0.4667,0,0,0,0,0,0,0,0,0,0,0,0,0,0.4089,0.4095,0.447,0.4474,0.4478,0.4719,0.4722,0.4724,0.4689,0.4685,0.4682,0.4678,0.4661,0.4664,0.4668,0,0,0,0,0,0,0,0,0,0,0,0,0,0.4279,0.4096,0.447,0.4497,0.4503,0.4719,0.4722,0.4725,0.469,0.4685,0.468,0.4676,0.466,0.4664,0.4668,0.4791,0,0,0.468,0.4682,0,0,0,0,0,0,0,0,0.4268,0.4291,0.4489,0.4496,0.4502,0.4676,0.4582,0.4737,0.4692,0.4609,0.4679,0.4673,0.4652,0.4657,0.4705,0.479,0.4789,0.468,0.4683,0.4684,0.4685,0,0,0,0,0,0,0,0.4254,0.4281,0.4559,0.4494,0.4502,0.454,0.4559,0.4612,0.4643,0.4616,0.4616,0.4661,0.4652,0.4701,0.4703,0.4789,0.468,0.4684,0.4686,0.4688,0.4832,0.4833,0,0,0,0,0,0,0.4243,0.427,0.4552,0.4568,0.4381,0.4551,0.4572,0.4618,0.4648,0.4653,0.4665,0.4658,0.4697,0.4699,0.4702,0.4749,0.4684,0.4688,0.469,0.483,0.4832,0.4834,0,0,0,0,0,0,0.4234,0.4266,0.4542,0.4431,0.4469,0.4563,0.4614,0.4626,0.4663,0.469,0.4686,0.4689,0.4693,0.4697,0.4729,0.475,0.469,0.4693,0.4829,0.4831,0.4833,0.4905,0,0,0,0,0,0,0.4222,0.4261,0.4297,0.4431,0.4476,0.4671,0.4621,0.4634,0.4703,0.4696,0.4711,0.4705,0.469,0.4723,0.4732,0.4755,0.4696,0.4827,0.483,0.4832,0.4901,0.4909,0.4917,0,0,0,0,0,0.4208,0.4317,0.4297,0.4333,0.4519,0.4675,0.4701,0.4744,0.4709,0.4751,0.4736,0.4704,0.4745,0.4729,0.4739,0.4763,0.4825,0.4829,0.4832,0.4897,0.4908,0.4917,0,0,0,0,0,0,0.4164,0.4329,0.4309,0.4454,0.4539,0.4672,0.4755,0.4758,0.4793,0.4774,0.4748,0.4745,0.4776,0.4772,0.4753,0.481,0.4773,0.4778,0.4818,0.4828,0.4836,0.4836,0.47,0,0,0,0,0,0.4172,0.4296,0.4408,0.4516,0.4571,0.4649,0.4718,0.474,0.4797,0.4808,0.4803,0.4797,0.4812,0.4816,0.4835,0.4892,0.4924,0.4905,0.4913,0.492,0.4926,0.4984,0.4999,0.4845,0.4845,0.4845,0,0,0.4184,0.4293,0.4357,0.4515,0.4592,0.466,0.4677,0.4802,0.4821,0.4803,0.4826,0.4838,0.4835,0.4877,0.4889,0.4867,0.4994,0.4924,0.493,0.4933,0.4989,0.5004,0.5018,0.4847,0.4847,0.4846,0,0,0.4271,0.4363,0.4471,0.4542,0.4672,0.4719,0.4744,0.4854,0.4869,0.4921,0.4889,0.4919,0.4946,0.495,0.4952,0.5027,0.5037,0.502,0.5063,0.512,0.5133,0.5145,0.5264,0.5286,0.502,0.502,0.502,0,0.426,0.4398,0.4522,0.4609,0.4668,0.4726,0.479,0.4838,0.4919,0.4941,0.492,0.4974,0.498,0.5019,0.5038,0.5046,0.5097,0.5026,0.5132,0.5144,0.5155,0.5273,0.5296,0.5024,0.5024,0.5023,0.5023,0,0.4405,0.4476,0.4562,0.4659,0.4733,0.4832,0.4887,0.493,0.4944,0.4971,0.5028,0.5058,0.5077,0.5093,0.5092,0.5167,0.5191,0.514,0.5108,0.5175,0.5296,0.5319,0.503,0.5028,0.5027,0.5026,0,0,0.4467,0.4625,0.4635,0.4652,0.4768,0.4841,0.4889,0.4965,0.499,0.504,0.5086,0.5134,0.5151,0.5156,0.5167,0.5228,0.538,0.5224,0.5225,0.5348,0.5565,0.5534,0.5557,0.5345,0.5347,0.535,0.5641,0,0.4518,0.464,0.4721,0.4781,0.484,0.4893,0.4933,0.4989,0.5037,0.5093,0.5138,0.519,0.5169,0.5206,0.5256,0.5346,0.5434,0.531,0.5478,0.5485,0.545,0.5578,0.5289,0.5517,0.5663,0.5667,0.5669,0,0.4614,0.4685,0.4756,0.4825,0.486,0.4887,0.4966,0.5013,0.5094,0.514,0.5189,0.523,0.5333,0.5302,0.5484,0.5406,0.5497,0.5568,0.5578,0.5532,0.5493,0.5462,0.5553,0.5383,0.5704,0.5701,0.5699,0,0.4592,0.4699,0.4746,0.4775,0.4868,0.4898,0.4939,0.5019,0.5078,0.5175,0.5249,0.5325,0.5415,0.5503,0.5648,0.558,0.5872,0.5783,0.5852,0.5854,0.5631,0.5607,0.5569,0.5924,0.5924,0.5923,0.5922,0,0.4625,0.4656,0.4729,0.4758,0.481,0.4878,0.4942,0.4999,0.5099,0.5174,0.5265,0.536,0.5471,0.5636,0.5715,0.5884,0.5926,0.5907,0.5926,0.5655,0.563,0.5487,0.5425,0.5934,0.5931,0.5929,0.5927,0,0.4587,0.4639,0.4696,0.478,0.4803,0.4834,0.4933,0.4978,0.5096,0.5205,0.5254,0.544,0.5655,0.5804,0.6009,0.6001,0.5984,0.6194,0.591,0.5887,0.5711,0.5664,0.5564,0.541,0.6295,0.6296,0.6297,0,0.4577,0.4606,0.4688,0.4709,0.4743,0.4798,0.4838,0.4949,0.5008,0.5245,0.5301,0.5567,0.5703,0.603,0.6089,0.6261,0.6071,0.6085,0.5868,0.5705,0.5668,0.5482,0.5344,0.5644,0.564,0.5636,0.5633,0,0.4561,0.4588,0.463,0.4676,0.4711,0.4747,0.4813,0.4858,0.5005,0.5127,0.5298,0.5439,0.5753,0.5782,0.603,0.6072,0.5753,0.6013,0.5877,0.5202,0.4959,0.4816,0.5515,0.5599,0.5603,0.5605,0.5607,0.5608,0.4536,0.4555,0.461,0.4634,0.4666,0.4673,0.4652,0.4747,0.4834,0.4951,0.5168,0.5266,0.5421,0.5705,0.5748,0.5586,0.5609,0.5367,0.5358,0.5213,0.4923,0.5601,0.5665,0.5668,0.5671,0.5674,0.5677,0,0.45,0.453,0.4562,0.4579,0.4549,0.4595,0.4615,0.4559,0.4593,0.474,0.4855,0.4902,0.4972,0.508,0.5074,0.4919,0.4694,0.4782,0.4393,0.4314,0.4941,0.4763,0.4586,0.4586,0.4586,0.4586,0.4587,0.4587,0.4493,0.4504,0.4513,0.4452,0.4438,0.4328,0.4289,0.4245,0.4271,0.4227,0.42,0.4294,0.4522,0.4647,0.4491,0.4388,0.406,0.39,0.3961,0.4332,0.4381,0.4428,0.4242,0.3959,0.3958,0.3077,0.3071,0.3066]},{"header":{"parameterUnit":"m.s-1","parameterCategory":2,"la1":30.2991,"la2":30.254,"lo1":-89.0895,"lo2":-89.0444,"dy":0.0017,"dx":0.0017,"nx":28,"ny":28,"refTime":"2025-07-09T03:00:00:Z","depth":"0","parameterNumber":3,"parameterNumberName":"V-component_of_CURRENTS"},"data":[0,0,0,0,0,0,0,0,0,0,0,0,0,0,0,0,0,0,0,0,0,0,0,0,0,0,0,0,0,0,0,0,0,0,0,0,0,0,0,0,0,0,0,0,0,0,0,0,0,0,0,0,0,0,0,0,0,0,-0.0272,-0.0273,0,-0.0395,-0.0396,-0.0398,-0.0432,-0.0431,-0.0431,-0.043,-0.0605,-0.061,-0.0615,0,0,0,0,0,0,0,0,0,0,0,0,0,-0.008,-0.0083,-0.0271,-0.0273,-0.0275,-0.0395,-0.0397,-0.0398,-0.0432,-0.0431,-0.0431,-0.043,-0.0603,-0.061,-0.0616,0,0,0,0,0,0,0,0,0,0,0,0,0,-0.0178,-0.0084,-0.0271,-0.0307,-0.0311,-0.0395,-0.0397,-0.0399,-0.0432,-0.0431,-0.043,-0.0429,-0.0601,-0.0609,-0.0617,-0.0684,0,0,-0.0641,-0.0644,0,0,0,0,0,0,0,0,-0.0173,-0.0185,-0.03,-0.0304,-0.031,-0.0398,-0.0393,-0.0497,-0.0432,-0.0385,-0.043,-0.0429,-0.0542,-0.0555,-0.0578,-0.0692,-0.07,-0.0641,-0.0646,-0.065,-0.0652,0,0,0,0,0,0,0,-0.0166,-0.018,-0.0319,-0.0302,-0.0308,-0.0322,-0.0335,-0.0413,-0.0468,-0.0389,-0.0392,-0.0408,-0.0545,-0.057,-0.0582,-0.0702,-0.0641,-0.0648,-0.0653,-0.0656,-0.0863,-0.0863,0,0,0,0,0,0,-0.0153,-0.0174,-0.0316,-0.0323,-0.0238,-0.0326,-0.034,-0.037,-0.0466,-0.0479,-0.0409,-0.0409,-0.0557,-0.0573,-0.0589,-0.063,-0.0649,-0.0657,-0.0661,-0.0862,-0.0863,-0.0864,0,0,0,0,0,0,-0.0149,-0.0165,-0.0311,-0.0251,-0.027,-0.033,-0.0363,-0.0373,-0.0396,-0.048,-0.0494,-0.0422,-0.0557,-0.0578,-0.0652,-0.0638,-0.066,-0.0667,-0.0861,-0.0862,-0.0863,-0.074,0,0,0,0,0,0,-0.0143,-0.0163,-0.0185,-0.0251,-0.0273,-0.0353,-0.0365,-0.0376,-0.0408,-0.041,-0.0497,-0.0512,-0.0558,-0.064,-0.066,-0.0649,-0.0674,-0.086,-0.0861,-0.0863,-0.0743,-0.0737,-0.0732,0,0,0,0,0,-0.0136,-0.0167,-0.0185,-0.0203,-0.03,-0.0354,-0.0366,-0.0404,-0.0409,-0.0421,-0.0477,-0.0509,-0.0663,-0.0647,-0.0671,-0.0662,-0.0859,-0.0861,-0.0863,-0.0746,-0.0738,-0.0732,0,0,0,0,0,0,-0.009,-0.0176,-0.0197,-0.0251,-0.0295,-0.0359,-0.0379,-0.0404,-0.0459,-0.0457,-0.0529,-0.0549,-0.0606,-0.0665,-0.0646,-0.0729,-0.0764,-0.077,-0.0667,-0.0661,-0.0655,-0.0589,-0.068,0,0,0,0,0,-0.0093,-0.014,-0.0208,-0.0248,-0.0267,-0.0322,-0.035,-0.0373,-0.0428,-0.0449,-0.0507,-0.0573,-0.0635,-0.0669,-0.0737,-0.0793,-0.0789,-0.0803,-0.0797,-0.0791,-0.0756,-0.0752,-0.074,-0.0869,-0.0869,-0.0869,0,0,-0.0089,-0.0138,-0.0167,-0.0242,-0.0277,-0.0287,-0.0336,-0.037,-0.037,-0.0464,-0.0487,-0.0562,-0.0649,-0.0697,-0.0728,-0.074,-0.0752,-0.0793,-0.0787,-0.0755,-0.0752,-0.0738,-0.0726,-0.087,-0.087,-0.087,0,0,-0.0076,-0.0141,-0.0161,-0.019,-0.024,-0.0271,-0.0276,-0.0336,-0.0354,-0.0405,-0.0457,-0.0514,-0.0626,-0.066,-0.0699,-0.071,-0.0725,-0.0746,-0.0657,-0.0654,-0.0641,-0.063,-0.0586,-0.0572,-0.0738,-0.0738,-0.0738,0,-0.0059,-0.0093,-0.0171,-0.0176,-0.0183,-0.0252,-0.0238,-0.0275,-0.0347,-0.0344,-0.0397,-0.0507,-0.0596,-0.0614,-0.0624,-0.0689,-0.0677,-0.0669,-0.0638,-0.0628,-0.0618,-0.0577,-0.0563,-0.0732,-0.0733,-0.0733,-0.0734,0,-0.0046,-0.0063,-0.0071,-0.0097,-0.0118,-0.0125,-0.017,-0.0181,-0.022,-0.0249,-0.0287,-0.0403,-0.0455,-0.0505,-0.0577,-0.0557,-0.0564,-0.0628,-0.0637,-0.0596,-0.0557,-0.0545,-0.0724,-0.0726,-0.0728,-0.0729,0,0,-0.0017,-0.0053,-0.005,-0.0023,-0.007,-0.007,-0.0068,-0.0071,-0.0024,-0.0124,-0.0072,-0.022,-0.027,-0.0317,-0.0408,-0.0419,-0.0367,-0.049,-0.0492,-0.0409,-0.0315,-0.033,-0.0319,-0.042,-0.0418,-0.0416,-0.0303,0,0.0033,0.0064,0.0021,0.0075,0.01,0.0058,0.0081,0.0072,0.0047,0.0077,-0.0027,-0.0046,-0.0202,-0.0221,-0.0258,-0.0336,-0.0333,-0.0389,-0.0398,-0.0397,-0.0386,-0.0305,-0.0335,-0.0238,-0.0291,-0.0289,-0.0288,0,0.008,0.0097,0.0158,0.0203,0.0212,0.0238,0.0305,0.0312,0.0321,0.0297,0.0263,0.0183,0.0139,-0.0002,-0.0079,-0.0105,-0.0194,-0.0259,-0.0257,-0.0299,-0.0389,-0.0297,-0.0214,-0.0464,-0.0269,-0.0271,-0.0272,0,0.0182,0.0207,0.0272,0.0281,0.0307,0.0353,0.0376,0.0397,0.0446,0.0455,0.0508,0.0411,0.04,0.027,0.0091,0.0018,0.0043,-0.0081,-0.0162,-0.0163,-0.0202,-0.021,-0.0328,-0.0107,-0.0107,-0.0107,-0.0108,0,0.0265,0.0327,0.0336,0.038,0.0491,0.0468,0.0593,0.0601,0.0657,0.0765,0.0636,0.0719,0.0465,0.0425,0.0226,0.0103,0.0144,-0.0097,-0.0126,-0.0162,-0.0168,-0.0402,-0.0554,-0.0103,-0.0104,-0.0105,-0.0106,0,0.0385,0.0378,0.0471,0.0519,0.0546,0.0636,0.0731,0.0823,0.0854,0.1007,0.1019,0.0982,0.093,0.0708,0.0535,0.031,0.0035,0.0106,0.0101,0.0068,-0.029,-0.0433,-0.054,-0.0627,0.0042,0.0042,0.0043,0,0.0454,0.0508,0.059,0.065,0.0682,0.0793,0.0876,0.0917,0.1022,0.1189,0.1289,0.1292,0.1329,0.1092,0.0701,0.0413,0.0129,0.0155,-0.0025,-0.0266,-0.0447,-0.0562,-0.0637,-0.0015,-0.0015,-0.0015,-0.0015,0,0.0591,0.0614,0.068,0.0797,0.0894,0.1014,0.114,0.1254,0.1346,0.1508,0.1719,0.1782,0.156,0.1265,0.0828,0.0566,-0.0037,0.0143,-0.0114,-0.0485,-0.0608,-0.072,-0.0112,-0.0016,-0.0016,-0.0016,-0.0016,-0.0016,0.0691,0.0763,0.0828,0.0947,0.1061,0.1217,0.1342,0.1507,0.1725,0.1998,0.2039,0.2199,0.1709,0.1123,0.0751,-0.0015,-0.001,-0.0294,-0.0431,-0.0511,-0.0655,-0.0024,0.0023,0.0024,0.0024,0.0024,0.0024,0,0.079,0.0851,0.0967,0.1102,0.1243,0.1281,0.15,0.1654,0.1943,0.2223,0.2432,0.2269,0.1672,0.1003,0.0006,-0.0509,-0.0726,-0.0807,-0.101,-0.1048,-0.0486,-0.0555,-0.0623,-0.0623,-0.0623,-0.0622,-0.0622,-0.0622,0.0841,0.0947,0.0995,0.122,0.133,0.153,0.1663,0.1926,0.2146,0.2489,0.2596,0.263,0.2058,0.0341,-0.0833,-0.1103,-0.147,-0.1548,-0.1684,-0.1376,-0.1341,-0.1308,-0.1409,-0.1655,-0.1657,-0.2204,-0.221,-0.2214]}],[{"header":{"parameterUnit":"m.s-1","parameterCategory":2,"la1":30.2991,"la2":30.254,"lo1":-89.0895,"lo2":-89.0444,"dy":0.0017,"dx":0.0017,"nx":28,"ny":28,"refTime":"2025-07-09T03:00:00:Z","depth":"2","parameterNumber":2,"parameterNumberName":"U-component_of_CURRENTS"},"data":[0,0,0,0,0,0,0,0,0,0,0,0,0,0,0,0,0,0,0,0,0,0,0,0,0,0,0,0,0,0,0,0,0,0,0,0,0,0,0,0,0,0,0,0,0,0,0,0,0,0,0,0,0,0,0,0,0,0,0.2892,0.289,0,0.2929,0.2932,0.2935,0.3067,0.3067,0.3068,0.3068,0.3053,0.3052,0.3052,0,0,0,0,0,0,0,0,0,0,0,0,0,0.2935,0.2936,0.2892,0.289,0.2888,0.2929,0.2932,0.2936,0.3067,0.3067,0.3068,0.3068,0.3053,0.3052,0.3052,0,0,0,0,0,0,0,0,0,0,0,0,0,0.2967,0.2936,0.2893,0.2936,0.2938,0.2928,0.2932,0.2937,0.3067,0.3067,0.3068,0.3068,0.3053,0.3052,0.3051,0.3038,0,0,0.3049,0.3048,0,0,0,0,0,0,0,0,0.2965,0.297,0.2932,0.2933,0.2935,0.2968,0.294,0.2958,0.3067,0.305,0.3068,0.3068,0.2999,0.3003,0.3053,0.3038,0.3037,0.3048,0.3048,0.3048,0.3047,0,0,0,0,0,0,0,0.2963,0.2968,0.2938,0.2929,0.293,0.2951,0.296,0.2947,0.3045,0.3052,0.3054,0.301,0.3004,0.3054,0.3053,0.3037,0.3049,0.3048,0.3047,0.3047,0.3111,0.3113,0,0,0,0,0,0,0.2897,0.2966,0.2936,0.2936,0.2917,0.2948,0.2959,0.2981,0.3046,0.3048,0.3009,0.3015,0.3055,0.3054,0.3052,0.3149,0.3048,0.3047,0.3046,0.3108,0.3111,0.3114,0,0,0,0,0,0,0.29,0.2898,0.2934,0.2924,0.2926,0.2943,0.297,0.2981,0.3045,0.3009,0.3017,0.3058,0.3055,0.3053,0.3047,0.3144,0.3046,0.3045,0.3106,0.3109,0.3112,0.327,0,0,0,0,0,0,0.2903,0.2901,0.2926,0.2921,0.2923,0.2999,0.2966,0.2981,0.3001,0.3012,0.3052,0.3051,0.3056,0.3048,0.3046,0.3141,0.3045,0.3103,0.3107,0.3111,0.3262,0.3278,0.3292,0,0,0,0,0,0.2905,0.2924,0.293,0.2924,0.295,0.2999,0.3012,0.304,0.3003,0.3091,0.3053,0.3051,0.3076,0.3048,0.3045,0.3142,0.3101,0.3106,0.3111,0.3255,0.3275,0.3292,0,0,0,0,0,0,0.2949,0.2936,0.2942,0.2958,0.3002,0.3012,0.3045,0.3043,0.3091,0.3092,0.3048,0.3048,0.3108,0.3071,0.3041,0.3172,0.3101,0.3105,0.3212,0.323,0.3245,0.3235,0.3044,0,0,0,0,0,0.2961,0.2996,0.299,0.3017,0.3025,0.3038,0.3054,0.3095,0.3096,0.3123,0.3133,0.3125,0.3127,0.3128,0.3158,0.3183,0.3208,0.3251,0.3266,0.328,0.3268,0.3339,0.336,0.313,0.313,0.313,0,0,0.297,0.2971,0.2985,0.303,0.3053,0.3103,0.3063,0.3124,0.3175,0.3102,0.3187,0.3191,0.3146,0.3222,0.3244,0.3197,0.3383,0.3286,0.3298,0.3279,0.3347,0.3369,0.3389,0.3134,0.3133,0.3133,0,0,0.3017,0.3025,0.3079,0.3121,0.316,0.3175,0.3188,0.3242,0.3289,0.3335,0.3307,0.3336,0.3346,0.3361,0.3342,0.3435,0.3474,0.3472,0.3526,0.3597,0.3617,0.3634,0.3804,0.3835,0.3463,0.3464,0.3464,0,0.3019,0.3095,0.3107,0.3171,0.3182,0.3198,0.3263,0.3311,0.3372,0.339,0.3387,0.3423,0.341,0.3435,0.3486,0.3476,0.3548,0.3464,0.362,0.3636,0.3651,0.382,0.3852,0.3472,0.3471,0.347,0.3469,0,0.3131,0.3178,0.3205,0.3288,0.3331,0.3396,0.3421,0.3502,0.3512,0.3541,0.3615,0.361,0.3625,0.3649,0.3581,0.3691,0.3729,0.3651,0.3578,0.3684,0.3856,0.3887,0.3484,0.3481,0.3478,0.3476,0,0,0.3142,0.3255,0.3271,0.3319,0.3397,0.3445,0.3516,0.3582,0.3637,0.3705,0.3771,0.3777,0.3798,0.3776,0.3757,0.3791,0.3998,0.3767,0.3767,0.3947,0.4253,0.4107,0.4127,0.3953,0.3956,0.3959,0.4372,0,0.3219,0.3346,0.3389,0.3498,0.3542,0.3577,0.3639,0.371,0.3769,0.3867,0.3846,0.3938,0.3837,0.3903,0.3911,0.3989,0.4067,0.3899,0.411,0.4118,0.3981,0.415,0.3754,0.4068,0.4401,0.4406,0.441,0,0.331,0.338,0.3501,0.3584,0.361,0.3695,0.38,0.3876,0.3971,0.4023,0.4076,0.4105,0.4193,0.4092,0.4253,0.4161,0.4217,0.425,0.4266,0.4073,0.4022,0.3991,0.411,0.446,0.4456,0.4452,0.4449,0,0.3316,0.344,0.3537,0.3573,0.3687,0.3758,0.3832,0.3937,0.4024,0.4177,0.4293,0.4343,0.4471,0.4488,0.4523,0.4446,0.4699,0.4612,0.4543,0.4541,0.4207,0.4164,0.4721,0.4721,0.472,0.4719,0.4718,0,0.3345,0.3423,0.3563,0.3621,0.374,0.3816,0.3978,0.4047,0.4206,0.4313,0.4407,0.4504,0.4574,0.4688,0.4656,0.471,0.4827,0.4601,0.4621,0.4261,0.422,0.4508,0.4477,0.4734,0.4731,0.4728,0.4725,0,0.3328,0.3421,0.3536,0.3693,0.3748,0.3849,0.4058,0.4142,0.4345,0.4509,0.4586,0.4748,0.4886,0.4935,0.5045,0.4942,0.4968,0.494,0.456,0.452,0.4762,0.4736,0.4993,0.4991,0.4989,0.4988,0.4986,0,0.3356,0.3405,0.3584,0.3636,0.3721,0.389,0.3962,0.417,0.4262,0.4588,0.4625,0.4892,0.4907,0.5075,0.4952,0.4969,0.5002,0.4646,0.4356,0.4789,0.4785,0.4761,0.4737,0.4072,0.4064,0.4057,0.4051,0,0.3352,0.3412,0.3474,0.3579,0.368,0.3803,0.395,0.4044,0.4265,0.4416,0.4534,0.4615,0.4798,0.4584,0.4666,0.458,0.4598,0.4502,0.5088,0.4004,0.3935,0.3925,0.393,0.3988,0.3995,0.3999,0.4003,0.4005,0.3336,0.333,0.3373,0.3458,0.3569,0.3631,0.3679,0.3775,0.3873,0.3974,0.4187,0.4181,0.4277,0.4123,0.402,0.399,0.4267,0.4083,0.41,0.4125,0.3883,0.3806,0.3802,0.3807,0.3811,0.3815,0.3818,0,0.3214,0.3186,0.3231,0.3287,0.3326,0.3477,0.3569,0.3505,0.3472,0.3588,0.361,0.3333,0.3281,0.3423,0.3262,0.3291,0.3215,0.319,0.3042,0.3108,0.3166,0.2867,0.2523,0.2519,0.2515,0.2511,0,0,0.3123,0.303,0.3003,0.2991,0.3089,0.3095,0.3125,0.3007,0.3019,0.2799,0.2788,0.3007,0.3268,0.2796,0.2779,0.263,0.2836,0.2538,0.3579,0.3467,0.3519,0.3692,0.3308,0,0,0,0,0]},{"header":{"parameterUnit":"m.s-1","parameterCategory":2,"la1":30.2991,"la2":30.254,"lo1":-89.0895,"lo2":-89.0444,"dy":0.0017,"dx":0.0017,"nx":28,"ny":28,"refTime":"2025-07-09T03:00:00:Z","depth":"2","parameterNumber":3,"parameterNumberName":"V-component_of_CURRENTS"},"data":[0,0,0,0,0,0,0,0,0,0,0,0,0,0,0,0,0,0,0,0,0,0,0,0,0,0,0,0,0,0,0,0,0,0,0,0,0,0,0,0,0,0,0,0,0,0,0,0,0,0,0,0,0,0,0,0,0,0,0.0038,0.0039,0,0.0014,0.0012,0.0011,-0.0087,-0.0087,-0.0088,-0.0089,-0.022,-0.0223,-0.0225,0,0,0,0,0,0,0,0,0,0,0,0,0,0.0007,0.0007,0.0038,0.0039,0.004,0.0014,0.0012,0.001,-0.0087,-0.0088,-0.0088,-0.0089,-0.0219,-0.0222,-0.0226,0,0,0,0,0,0,0,0,0,0,0,0,0,-0.001,0.0007,0.0038,0.0,-0.0002,0.0015,0.0012,0.001,-0.0086,-0.0088,-0.0089,-0.009,-0.0218,-0.0222,-0.0226,-0.0228,0,0,-0.0239,-0.0241,0,0,0,0,0,0,0,0,-0.0009,-0.0011,0.0005,0.0003,0.0001,-0.0021,-0.0046,-0.0069,-0.0086,-0.0071,-0.0089,-0.009,-0.0152,-0.0161,-0.0185,-0.0234,-0.024,-0.0239,-0.0242,-0.0243,-0.0245,0,0,0,0,0,0,0,-0.0008,-0.001,0.0012,0.0007,0.0004,-0.0011,-0.0017,-0.0052,-0.0119,-0.0073,-0.0076,-0.0053,-0.0156,-0.018,-0.0188,-0.0242,-0.0239,-0.0243,-0.0245,-0.0247,-0.0392,-0.0394,0,0,0,0,0,0,0.0029,-0.0009,0.0013,0.0013,0.0011,-0.0009,-0.0016,-0.0026,-0.0116,-0.0126,-0.0051,-0.0057,-0.0173,-0.0184,-0.0193,-0.028,-0.0243,-0.0247,-0.025,-0.0391,-0.0393,-0.0394,0,0,0,0,0,0,0.0027,0.0029,0.0014,0.0016,0.0015,-0.0005,-0.0017,-0.0025,-0.0056,-0.0096,-0.0112,-0.0071,-0.0174,-0.0188,-0.0215,-0.0283,-0.0249,-0.0253,-0.0389,-0.0391,-0.0393,-0.0402,0,0,0,0,0,0,0.0026,0.0028,0.0021,0.0018,0.0017,0.0003,-0.0014,-0.0024,-0.0031,-0.0039,-0.0118,-0.0131,-0.0176,-0.0209,-0.0219,-0.0288,-0.0256,-0.0388,-0.039,-0.0393,-0.04,-0.0404,-0.0407,0,0,0,0,0,0.0024,0.0032,0.0019,0.0023,0.001,0.0004,-0.0002,-0.0029,-0.003,-0.006,-0.0083,-0.0129,-0.0236,-0.0211,-0.0224,-0.0295,-0.0386,-0.039,-0.0393,-0.0398,-0.0403,-0.0407,0,0,0,0,0,0,0.0021,0.0024,0.001,0.0018,0.0003,-0.0007,-0.0008,-0.0023,-0.0065,-0.0075,-0.0116,-0.0131,-0.0204,-0.0225,-0.0197,-0.0346,-0.0331,-0.0337,-0.0332,-0.0337,-0.034,-0.0289,-0.0259,0,0,0,0,0,0.0022,0.0008,0.0015,0.0011,0.002,0.0004,0.0002,-0.0028,-0.0045,-0.0068,-0.0128,-0.018,-0.0226,-0.0254,-0.0317,-0.0361,-0.0349,-0.0425,-0.0428,-0.0431,-0.0399,-0.0431,-0.0434,-0.0404,-0.0404,-0.0404,0,0,0.0026,0.0023,0.0018,0.0008,0.0003,0.0006,-0.0007,-0.0019,-0.004,-0.0072,-0.0139,-0.0201,-0.024,-0.0318,-0.0353,-0.034,-0.0434,-0.0435,-0.0438,-0.0402,-0.0435,-0.0437,-0.044,-0.0406,-0.0406,-0.0406,0,0,0.0029,0.0023,0.0016,0.001,0.0005,-0.0002,0.0,-0.0037,-0.0077,-0.0123,-0.0167,-0.023,-0.0317,-0.0363,-0.0383,-0.043,-0.046,-0.0493,-0.0463,-0.0497,-0.0499,-0.05,-0.0479,-0.0479,-0.0486,-0.0486,-0.0486,0,0.0037,0.0028,0.0013,0.0012,0.0029,0.0004,0.0014,-0.0025,-0.0088,-0.0104,-0.0151,-0.0269,-0.033,-0.0365,-0.0406,-0.0441,-0.0444,-0.0442,-0.0499,-0.05,-0.0502,-0.048,-0.0479,-0.0487,-0.0487,-0.0487,-0.0487,0,0.0035,0.0034,0.0043,0.003,0.0029,0.0033,0.0013,-0.0031,-0.0074,-0.0116,-0.0199,-0.0281,-0.0336,-0.0405,-0.0418,-0.0477,-0.047,-0.0507,-0.0479,-0.0505,-0.0481,-0.048,-0.0488,-0.0488,-0.0488,-0.0488,0,0,0.0054,0.0046,0.0045,0.0062,0.0046,0.0057,0.0031,0.0018,0.0028,-0.0104,-0.0102,-0.0243,-0.03,-0.0324,-0.0392,-0.0433,-0.0468,-0.0475,-0.0477,-0.0437,-0.0507,-0.0523,-0.0523,-0.0528,-0.0528,-0.0528,-0.0481,0,0.0067,0.0083,0.0063,0.0091,0.0126,0.0103,0.0097,0.0064,0.0022,-0.0003,-0.01,-0.0148,-0.0263,-0.0295,-0.0362,-0.0428,-0.0468,-0.0474,-0.0501,-0.0499,-0.0499,-0.0524,-0.0512,-0.0473,-0.048,-0.048,-0.048,0,0.0082,0.0099,0.0128,0.0164,0.0178,0.0174,0.0203,0.0187,0.0151,0.0118,0.0049,-0.0026,-0.0099,-0.02,-0.0319,-0.0322,-0.0413,-0.0475,-0.0476,-0.0478,-0.0515,-0.0453,-0.047,-0.0478,-0.0478,-0.0478,-0.0478,0,0.0138,0.0156,0.0189,0.0199,0.0219,0.0224,0.0231,0.0212,0.0244,0.02,0.0238,0.0099,0.0094,-0.0074,-0.0219,-0.0277,-0.0319,-0.0412,-0.0503,-0.0502,-0.0485,-0.0483,-0.0498,-0.0499,-0.0499,-0.0499,-0.0499,0,0.0191,0.0219,0.0217,0.0244,0.0299,0.0282,0.034,0.0327,0.0353,0.0429,0.0305,0.0357,0.012,0.0061,-0.0138,-0.0283,-0.0258,-0.0478,-0.0499,-0.0488,-0.0488,-0.0491,-0.0491,-0.0497,-0.0497,-0.0498,-0.0498,0,0.0251,0.0244,0.0297,0.0318,0.0329,0.0367,0.0437,0.0489,0.0508,0.0618,0.062,0.0584,0.0494,0.0286,0.0079,-0.012,-0.0299,-0.036,-0.0301,-0.032,-0.0481,-0.0482,-0.0476,-0.0476,-0.0477,-0.0477,-0.0477,0,0.0281,0.0313,0.0358,0.0398,0.0405,0.0466,0.0519,0.055,0.0628,0.0767,0.0839,0.0815,0.0821,0.0551,0.0165,-0.0147,-0.0211,-0.0336,-0.0484,-0.0461,-0.0482,-0.0483,-0.0483,-0.0448,-0.0448,-0.0448,-0.0448,0,0.0354,0.0358,0.0401,0.0484,0.0539,0.0637,0.0715,0.082,0.0899,0.1051,0.1227,0.1257,0.0982,0.0668,0.023,-0.0015,-0.0306,-0.0349,-0.0319,-0.0471,-0.0436,-0.0457,-0.0458,-0.0448,-0.0448,-0.0448,-0.0448,-0.0448,0.0398,0.0446,0.0497,0.0586,0.0663,0.08,0.0928,0.1066,0.1274,0.1498,0.1478,0.1546,0.1142,0.0576,0.0179,-0.0269,-0.0292,-0.0469,-0.0468,-0.0468,-0.0488,-0.0458,-0.0473,-0.0473,-0.0474,-0.0474,-0.0474,0,0.0473,0.0521,0.0604,0.0725,0.0855,0.0864,0.1065,0.1242,0.1547,0.1662,0.1812,0.1475,0.1118,0.067,-0.0007,-0.0408,-0.0462,-0.0515,-0.0503,-0.0501,-0.05,-0.0523,-0.0517,-0.0518,-0.0518,-0.0519,0,0,0.0509,0.0616,0.067,0.0885,0.0975,0.1181,0.1325,0.1596,0.1743,0.191,0.1909,0.1802,0.1251,0.0764,0.0221,-0.014,-0.0228,-0.0215,-0.0146,-0.0068,-0.0061,-0.0447,-0.0476,0,0,0,0,0]}],[{"header":{"parameterUnit":"m.s-1","parameterCategory":2,"la1":30.2991,"la2":30.254,"lo1":-89.0895,"lo2":-89.0444,"dy":0.0017,"dx":0.0017,"nx":28,"ny":28,"refTime":"2025-07-09T03:00:00:Z","depth":"4","parameterNumber":2,"parameterNumberName":"U-component_of_CURRENTS"},"data":[0,0,0,0,0,0,0,0,0,0,0,0,0,0,0,0,0,0,0,0,0,0,0,0,0,0,0,0,0,0,0,0,0,0,0,0,0,0,0,0,0,0,0,0,0,0,0,0,0,0,0,0,0,0,0,0,0,0,0.1176,0.1175,0,0.1203,0.1204,0.1205,0.137,0.1373,0.1376,0.1379,0.1461,0.1461,0.146,0,0,0,0,0,0,0,0,0,0,0,0,0,0.1286,0.1284,0.1176,0.1175,0.1174,0.1203,0.1204,0.1206,0.137,0.1374,0.1377,0.1381,0.1461,0.1461,0.146,0,0,0,0,0,0,0,0,0,0,0,0,0,0.1278,0.1284,0.1176,0.1252,0.1259,0.1202,0.1204,0.1206,0.1369,0.1374,0.1378,0.1382,0.1462,0.1461,0.146,0.1363,0,0,0.1457,0.1456,0,0,0,0,0,0,0,0,0.1278,0.1275,0.1242,0.1247,0.1254,0.1279,0.1273,0.1257,0.1368,0.1338,0.1379,0.1385,0.1395,0.14,0.1409,0.1366,0.137,0.1457,0.1456,0.1456,0.1455,0,0,0,0,0,0,0,0.1279,0.1275,0.1197,0.124,0.1247,0.1291,0.1296,0.1271,0.135,0.1341,0.135,0.1335,0.1401,0.1409,0.1412,0.1371,0.1457,0.1456,0.1455,0.1455,0.1508,0.151,0,0,0,0,0,0,0.1247,0.1274,0.1196,0.1197,0.1266,0.1285,0.1291,0.1275,0.1349,0.1361,0.1331,0.1343,0.1409,0.1413,0.1415,0.1504,0.1456,0.1455,0.1454,0.1506,0.1508,0.151,0,0,0,0,0,0,0.125,0.124,0.1195,0.1229,0.1225,0.1277,0.1258,0.1272,0.132,0.1339,0.1356,0.1367,0.1413,0.1417,0.1456,0.1502,0.1454,0.1453,0.1503,0.1507,0.1509,0.1554,0,0,0,0,0,0,0.1253,0.1241,0.1241,0.1226,0.1222,0.1195,0.1253,0.1269,0.1296,0.1313,0.1373,0.1384,0.1417,0.1457,0.1455,0.1499,0.1453,0.1501,0.1505,0.1508,0.155,0.1558,0.1565,0,0,0,0,0,0.1257,0.1208,0.124,0.1232,0.1212,0.1193,0.1198,0.1257,0.1293,0.1317,0.1375,0.1385,0.1481,0.1456,0.1453,0.1499,0.1499,0.1504,0.1508,0.1546,0.1556,0.1564,0,0,0,0,0,0,0.1254,0.1218,0.1255,0.1202,0.122,0.1219,0.1217,0.1255,0.1313,0.1343,0.138,0.1394,0.146,0.1457,0.1429,0.1531,0.1501,0.1505,0.1531,0.154,0.1548,0.1617,0.1452,0,0,0,0,0,0.1247,0.1207,0.1208,0.1172,0.1173,0.1202,0.1205,0.1253,0.1281,0.1314,0.1361,0.1415,0.1461,0.1485,0.1522,0.1535,0.1568,0.1574,0.1581,0.1587,0.1645,0.171,0.1729,0.1525,0.1525,0.1525,0,0,0.1231,0.1205,0.1187,0.117,0.1181,0.1202,0.122,0.1226,0.1283,0.1303,0.1395,0.1433,0.1472,0.1536,0.1563,0.1545,0.1658,0.1593,0.1598,0.1654,0.1717,0.1737,0.1755,0.1528,0.1528,0.1527,0,0,0.1178,0.1163,0.1136,0.1151,0.1166,0.1192,0.1199,0.1233,0.1297,0.1345,0.1415,0.1489,0.1513,0.1599,0.1627,0.1682,0.1697,0.1687,0.1775,0.1835,0.1853,0.1869,0.1912,0.1932,0.1687,0.1687,0.1687,0,0.1182,0.1153,0.1129,0.1129,0.1159,0.1193,0.1228,0.1266,0.1331,0.1393,0.1388,0.1535,0.1557,0.1683,0.1735,0.1703,0.1737,0.1729,0.1846,0.1863,0.1879,0.1919,0.194,0.169,0.169,0.1689,0.1689,0,0.1119,0.1139,0.1113,0.1147,0.1176,0.1194,0.1255,0.1315,0.1373,0.1437,0.1569,0.1619,0.1725,0.1735,0.1754,0.19,0.1885,0.1845,0.1821,0.1902,0.1938,0.196,0.1694,0.1693,0.1692,0.1691,0,0,0.1042,0.1077,0.1084,0.1139,0.1206,0.1218,0.131,0.1415,0.1466,0.1574,0.1685,0.1801,0.1862,0.1906,0.1947,0.2015,0.2135,0.1997,0.1999,0.2039,0.2275,0.2128,0.2137,0.2114,0.2118,0.2122,0.2245,0,0.1038,0.1065,0.1093,0.1173,0.1211,0.1295,0.1377,0.1481,0.1532,0.1635,0.177,0.189,0.1912,0.1984,0.2059,0.2155,0.22,0.2107,0.2195,0.2199,0.2057,0.216,0.2137,0.2261,0.2266,0.2269,0.2272,0,0.098,0.1028,0.11,0.1231,0.1256,0.1318,0.1448,0.1523,0.1669,0.1728,0.1877,0.1971,0.2204,0.214,0.2366,0.2313,0.2314,0.2338,0.2341,0.2221,0.2094,0.2171,0.231,0.2307,0.2305,0.2302,0.23,0,0.0933,0.1033,0.1105,0.1142,0.128,0.1358,0.1455,0.1569,0.1657,0.1825,0.1922,0.213,0.2285,0.2381,0.2482,0.245,0.2643,0.2578,0.2432,0.242,0.2492,0.2474,0.2663,0.2663,0.2663,0.2662,0.2662,0,0.0894,0.0956,0.1092,0.1128,0.125,0.1353,0.1454,0.1558,0.1716,0.1826,0.2005,0.213,0.2355,0.2489,0.2531,0.2582,0.2688,0.2501,0.2463,0.2501,0.2483,0.2505,0.2485,0.2667,0.2666,0.2665,0.2664,0,0.0803,0.089,0.0964,0.1135,0.122,0.1288,0.1503,0.1527,0.1731,0.188,0.1999,0.2231,0.2423,0.2558,0.2694,0.2638,0.2689,0.2626,0.2685,0.2638,0.2412,0.2394,0.2546,0.2543,0.254,0.2537,0.2535,0,0.0753,0.0775,0.0951,0.099,0.1073,0.1215,0.1296,0.1524,0.1558,0.1909,0.197,0.2256,0.238,0.2496,0.2608,0.2689,0.2617,0.2621,0.2526,0.2465,0.2412,0.2398,0.2384,0.253,0.2529,0.2528,0.2527,0,0.0652,0.0696,0.0769,0.0869,0.0952,0.1059,0.1211,0.1276,0.1521,0.1735,0.1946,0.2119,0.2278,0.2411,0.2466,0.2499,0.2649,0.2588,0.2594,0.2504,0.2446,0.2394,0.2383,0.2517,0.2518,0.2519,0.252,0,0.0572,0.0573,0.0653,0.0731,0.0813,0.0886,0.1001,0.1132,0.1289,0.1677,0.1724,0.2024,0.223,0.2308,0.2371,0.2413,0.2383,0.2306,0.2325,0.2339,0.2216,0.2108,0.2089,0,0,0,0,0,0.049,0.0486,0.0518,0.0595,0.0645,0.0739,0.092,0.1023,0.1291,0.1385,0.1579,0.1734,0.1949,0.2079,0.2084,0.2252,0.2352,0.2247,0.226,0.2457,0.2469,0.2345,0,0,0,0,0,0,0.0432,0.0459,0.0479,0.046,0.048,0.0571,0.0692,0.0881,0.0954,0.1241,0.1348,0.1603,0.1793,0.1913,0.2036,0.2077,0.2049,0.2421,0.2417,0.245,0.2461,0.2471,0.2348,0,0,0,0,0]},{"header":{"parameterUnit":"m.s-1","parameterCategory":2,"la1":30.2991,"la2":30.254,"lo1":-89.0895,"lo2":-89.0444,"dy":0.0017,"dx":0.0017,"nx":28,"ny":28,"refTime":"2025-07-09T03:00:00:Z","depth":"4","parameterNumber":3,"parameterNumberName":"V-component_of_CURRENTS"},"data":[0,0,0,0,0,0,0,0,0,0,0,0,0,0,0,0,0,0,0,0,0,0,0,0,0,0,0,0,0,0,0,0,0,0,0,0,0,0,0,0,0,0,0,0,0,0,0,0,0,0,0,0,0,0,0,0,0,0,0.03,0.03,0,0.0347,0.0347,0.0347,0.0302,0.03,0.0298,0.0297,0.0254,0.0254,0.0254,0,0,0,0,0,0,0,0,0,0,0,0,0,0.0189,0.0191,0.03,0.03,0.0301,0.0346,0.0347,0.0348,0.0302,0.03,0.0298,0.0296,0.0253,0.0254,0.0255,0,0,0,0,0,0,0,0,0,0,0,0,0,0.0236,0.0192,0.03,0.0284,0.0283,0.0346,0.0347,0.0348,0.0303,0.03,0.0297,0.0295,0.0253,0.0254,0.0255,0.0312,0,0,0.0257,0.0257,0,0,0,0,0,0,0,0,0.0233,0.024,0.0286,0.0285,0.0285,0.0316,0.0292,0.0331,0.0303,0.0295,0.0297,0.0294,0.0268,0.0268,0.0283,0.031,0.0308,0.0257,0.0257,0.0258,0.0258,0,0,0,0,0,0,0,0.023,0.0238,0.0318,0.0287,0.0286,0.0281,0.0285,0.03,0.0294,0.0295,0.0292,0.0299,0.0267,0.0283,0.0281,0.0307,0.0257,0.0258,0.0258,0.0258,0.0294,0.0295,0,0,0,0,0,0,0.0228,0.0235,0.0316,0.0319,0.0252,0.0285,0.0289,0.0308,0.0295,0.0292,0.0301,0.0297,0.0283,0.0281,0.0279,0.0293,0.0258,0.0258,0.0259,0.0294,0.0294,0.0295,0,0,0,0,0,0,0.0226,0.0235,0.0314,0.0277,0.0287,0.029,0.0312,0.0311,0.033,0.0301,0.0295,0.0321,0.028,0.0278,0.0288,0.0292,0.0259,0.0259,0.0293,0.0294,0.0295,0.0353,0,0,0,0,0,0,0.0223,0.0235,0.0254,0.0278,0.0289,0.0364,0.0314,0.0313,0.0338,0.0333,0.0317,0.031,0.0278,0.0287,0.0289,0.0293,0.026,0.0292,0.0293,0.0294,0.0351,0.0356,0.036,0,0,0,0,0,0.0219,0.0272,0.0255,0.0265,0.0314,0.0366,0.0373,0.0364,0.0342,0.0368,0.034,0.031,0.0293,0.029,0.0291,0.0295,0.0292,0.0293,0.0294,0.0348,0.0355,0.036,0,0,0,0,0,0,0.0239,0.0273,0.0254,0.0315,0.0336,0.0358,0.0389,0.0382,0.0388,0.0377,0.0337,0.033,0.0332,0.0316,0.0313,0.0305,0.0281,0.0283,0.0321,0.0327,0.0332,0.0333,0.0261,0,0,0,0,0,0.0251,0.0297,0.0315,0.0363,0.0375,0.0383,0.0404,0.0401,0.0408,0.0408,0.039,0.0364,0.0344,0.0337,0.0325,0.0344,0.0282,0.034,0.0345,0.0349,0.035,0.0255,0.0251,0.0299,0.0299,0.0299,0,0,0.0271,0.0297,0.032,0.0369,0.0383,0.0409,0.039,0.0436,0.0444,0.0404,0.0414,0.0392,0.0354,0.0354,0.0353,0.0339,0.0304,0.0351,0.0355,0.0353,0.0256,0.0251,0.0246,0.0299,0.0299,0.0299,0,0,0.0339,0.0356,0.0409,0.0426,0.0457,0.0456,0.0472,0.0497,0.0493,0.0512,0.0463,0.0444,0.0441,0.0397,0.0375,0.0408,0.0335,0.0407,0.0433,0.0341,0.0336,0.0331,0.0244,0.0231,0.0406,0.0406,0.0406,0,0.0351,0.0415,0.0433,0.0475,0.0486,0.0476,0.0513,0.0516,0.0535,0.0528,0.0517,0.0475,0.045,0.0415,0.042,0.0416,0.0356,0.0414,0.0346,0.0339,0.0332,0.0245,0.0229,0.0409,0.0409,0.0409,0.0408,0,0.0446,0.0482,0.0519,0.0547,0.0568,0.0608,0.0598,0.0609,0.0595,0.058,0.0564,0.0529,0.0495,0.0484,0.0465,0.0414,0.0383,0.0363,0.0329,0.0331,0.0239,0.0222,0.0414,0.0412,0.0412,0.0411,0,0,0.0504,0.0568,0.0579,0.0584,0.0606,0.0631,0.064,0.0642,0.0615,0.0625,0.0604,0.0573,0.0549,0.0523,0.0491,0.0422,0.0328,0.0385,0.0379,0.0296,0.0124,0.0125,0.0105,0.0293,0.0291,0.0289,0.0078,0,0.056,0.0642,0.0661,0.0702,0.0726,0.0706,0.0711,0.0703,0.066,0.0635,0.0601,0.0579,0.0562,0.0552,0.0479,0.0373,0.0286,0.0388,0.0137,0.013,0.0127,0.0087,0.0281,0.0064,0.006,0.0057,0.0055,0,0.0635,0.0677,0.0741,0.0754,0.0764,0.0784,0.0751,0.0754,0.0702,0.0679,0.064,0.0603,0.0547,0.0524,0.0324,0.0392,0.0265,0.0171,0.0159,0.0128,0.0098,0.0061,0.0022,0.0025,0.0027,0.0029,0.0031,0,0.0657,0.072,0.0769,0.0777,0.0799,0.0819,0.0826,0.0775,0.0777,0.0713,0.0702,0.0602,0.0568,0.0414,0.0251,0.0278,0.0003,0.0005,-0.0125,-0.0127,-0.009,-0.0082,-0.0171,-0.017,-0.017,-0.0169,-0.0169,0,0.0692,0.0728,0.0786,0.081,0.0863,0.0856,0.0876,0.0853,0.0826,0.0818,0.0744,0.0701,0.0535,0.0379,0.0228,-0.0001,-0.0027,-0.0136,-0.0187,-0.0059,-0.0045,-0.0104,-0.0093,-0.0177,-0.0176,-0.0174,-0.0173,0,0.0697,0.074,0.079,0.0842,0.0882,0.0909,0.0976,0.0957,0.093,0.0915,0.0925,0.0772,0.0563,0.0365,0.0077,-0.0035,-0.0248,-0.0334,-0.0192,-0.0229,-0.0313,-0.0296,-0.0493,-0.0495,-0.0497,-0.0498,-0.0499,0,0.0703,0.0731,0.0833,0.0874,0.091,0.0976,0.1021,0.1034,0.1014,0.0948,0.0937,0.0755,0.0634,0.023,0.001,-0.0308,-0.0343,-0.0457,-0.0368,-0.0319,-0.0349,-0.033,-0.0312,-0.0502,-0.0502,-0.0502,-0.0503,0,0.0689,0.0731,0.0784,0.0892,0.0959,0.1047,0.1108,0.1112,0.1094,0.1082,0.0946,0.0764,0.0501,0.0215,-0.0047,-0.0266,-0.0371,-0.0474,-0.0471,-0.0388,-0.0331,-0.0355,-0.0336,-0.0508,-0.0507,-0.0507,-0.0507,0,0.0683,0.0713,0.0799,0.0882,0.0978,0.1068,0.1114,0.1106,0.112,0.1037,0.0977,0.0732,0.0577,0.023,-0.0006,-0.0222,-0.0258,-0.0299,-0.0306,-0.0303,-0.0166,-0.006,-0.0214,0,0,0,0,0,0.0659,0.0704,0.078,0.0878,0.0967,0.1055,0.1137,0.1157,0.1143,0.1059,0.103,0.0799,0.0447,0.0273,0.0056,-0.0038,-0.0302,-0.0299,-0.0354,-0.0538,-0.0532,-0.0401,0,0,0,0,0,0,0.0649,0.0723,0.077,0.086,0.0925,0.1052,0.1117,0.1126,0.1074,0.1024,0.0829,0.0754,0.0395,0.057,0.0051,-0.0018,-0.0078,-0.0464,-0.0468,-0.0542,-0.0536,-0.0531,-0.0394,0,0,0,0,0]}]]